Time,TemperatureF,DewpointF,PressureIn,WindDirection,WindDirectionDegrees,WindSpeedMPH,WindSpeedGustMPH,Humidity,HourlyPrecipIn,Conditions,Clouds,dailyrainin,SoftwareType,DateUTC
2013-06-15 00:09:00,76.8,76.3,0.00,North,0,0.0,0.0,98,0.00,,,-99.99,Homeseer,2013-06-15 04:09:00,
2013-06-15 00:19:00,76.8,76.3,0.00,North,0,0.0,0.0,98,0.00,,,-99.99,Homeseer,2013-06-15 04:19:00,
2013-06-15 00:29:00,76.8,76.3,0.00,North,0,0.0,0.0,98,0.00,,,-99.99,Homeseer,2013-06-15 04:29:00,
2013-06-15 00:39:00,77.0,76.5,0.00,North,0,0.0,0.0,98,0.00,,,-99.99,Homeseer,2013-06-15 04:39:00,
2013-06-15 00:49:00,77.0,76.5,0.00,North,0,0.0,0.0,98,0.00,,,-99.99,Homeseer,2013-06-15 04:49:00,
2013-06-15 00:59:00,77.2,76.7,0.00,North,0,0.0,0.0,98,0.00,,,-99.99,Homeseer,2013-06-15 04:59:00,
2013-06-15 01:09:00,77.0,76.5,0.00,North,0,0.0,0.0,98,0.00,,,-99.99,Homeseer,2013-06-15 05:09:00,
2013-06-15 01:19:00,77.2,76.7,0.00,North,0,0.0,0.0,98,0.00,,,-99.99,Homeseer,2013-06-15 05:19:00,
2013-06-15 01:29:00,77.2,76.7,0.00,North,0,0.0,0.0,98,0.00,,,-99.99,Homeseer,2013-06-15 05:29:00,
2013-06-15 01:39:00,77.0,76.5,0.00,North,0,0.0,0.0,98,0.00,,,-99.99,Homeseer,2013-06-15 05:39:00,
2013-06-15 01:49:00,77.2,76.7,0.00,North,0,0.0,0.0,98,0.00,,,-99.99,Homeseer,2013-06-15 05:49:00,
2013-06-15 01:59:00,77.2,76.7,0.00,North,0,0.0,0.0,98,0.00,,,-99.99,Homeseer,2013-06-15 05:59:00,
2013-06-15 02:09:00,77.2,76.7,0.00,North,0,0.0,0.0,98,0.00,,,-99.99,Homeseer,2013-06-15 06:09:00,
2013-06-15 02:19:00,77.4,76.9,0.00,North,0,0.0,0.0,98,0.00,,,-99.99,Homeseer,2013-06-15 06:19:00,
2013-06-15 02:29:00,77.4,76.9,0.00,North,0,0.0,0.0,98,0.00,,,-99.99,Homeseer,2013-06-15 06:29:00,
2013-06-15 02:39:00,77.4,76.9,0.00,North,0,0.0,0.0,98,0.00,,,-99.99,Homeseer,2013-06-15 06:39:00,
2013-06-15 02:49:00,77.4,76.9,0.00,North,0,0.0,0.0,98,0.00,,,-99.99,Homeseer,2013-06-15 06:49:00,
2013-06-15 02:59:00,77.4,76.9,0.00,North,0,0.0,0.0,98,0.00,,,-99.99,Homeseer,2013-06-15 06:59:00,
2013-06-15 03:09:00,77.4,76.9,0.00,North,0,0.0,0.0,98,0.00,,,-99.99,Homeseer,2013-06-15 07:09:00,
2013-06-15 03:19:00,77.4,76.9,0.00,North,0,0.0,0.0,98,0.00,,,-99.99,Homeseer,2013-06-15 07:19:00,
2013-06-15 04:08:00,77.4,76.9,0.00,North,0,0.0,0.0,98,0.00,,,-99.99,Homeseer,2013-06-15 08:08:00,
2013-06-15 04:18:00,77.4,76.9,0.00,North,0,0.0,0.0,98,0.00,,,-99.99,Homeseer,2013-06-15 08:18:00,
2013-06-15 04:28:00,77.4,76.9,0.00,North,0,0.0,0.0,98,0.00,,,-99.99,Homeseer,2013-06-15 08:28:00,
2013-06-15 04:38:00,77.4,76.9,0.00,North,0,0.0,0.0,98,0.00,,,-99.99,Homeseer,2013-06-15 08:38:00,
2013-06-15 04:48:00,77.4,76.9,0.00,North,0,0.0,0.0,98,0.00,,,-99.99,Homeseer,2013-06-15 08:48:00,
2013-06-15 04:58:00,77.4,76.9,0.00,North,0,0.0,0.0,98,0.00,,,-99.99,Homeseer,2013-06-15 08:58:00,
2013-06-15 05:08:00,0.0,0.0,0.00,North,0,0.0,0.0,0,0.00,,,-99.99,Homeseer,2013-06-15 09:08:00,
2013-06-15 05:18:00,0.0,0.0,0.00,North,0,0.0,0.0,0,0.00,,,-99.99,Homeseer,2013-06-15 09:18:00,
2013-06-15 05:28:00,76.8,76.3,0.00,North,0,0.0,0.0,98,0.00,,,-99.99,Homeseer,2013-06-15 09:28:00,
2013-06-15 05:38:00,76.8,76.3,0.00,North,0,0.0,0.0,98,0.00,,,-99.99,Homeseer,2013-06-15 09:38:00,
2013-06-15 05:48:00,76.8,76.3,0.00,North,0,0.0,0.0,98,0.00,,,-99.99,Homeseer,2013-06-15 09:48:00,
2013-06-15 05:58:00,76.6,76.1,0.00,North,0,0.0,0.0,98,0.00,,,-99.99,Homeseer,2013-06-15 09:58:00,
2013-06-15 06:08:00,76.8,76.3,0.00,North,0,0.0,0.0,98,0.00,,,-99.99,Homeseer,2013-06-15 10:08:00,
2013-06-15 06:18:00,76.5,76.0,0.00,North,0,0.0,0.0,98,0.00,,,-99.99,Homeseer,2013-06-15 10:18:00,
2013-06-15 06:28:00,76.5,76.0,0.00,North,0,0.0,0.0,98,0.00,,,-99.99,Homeseer,2013-06-15 10:28:00,
2013-06-15 06:38:00,76.5,76.0,0.00,North,0,0.0,0.0,98,0.00,,,-99.99,Homeseer,2013-06-15 10:38:00,
2013-06-15 06:48:00,76.5,76.0,0.00,North,0,0.0,0.0,98,0.00,,,-99.99,Homeseer,2013-06-15 10:48:00,
2013-06-15 06:58:00,77.0,76.5,0.00,WSW,247,0.0,0.0,98,0.00,,,-99.99,Homeseer,2013-06-15 10:58:00,
2013-06-15 07:08:00,77.4,76.9,0.00,WNW,297,0.0,0.0,98,0.00,,,-99.99,Homeseer,2013-06-15 11:08:00,
2013-06-15 07:18:00,77.9,77.2,0.00,WNW,297,0.0,0.0,97,0.00,,,-99.99,Homeseer,2013-06-15 11:18:00,
2013-06-15 07:28:00,78.3,77.6,0.00,North,0,0.0,0.0,97,0.00,,,-99.99,Homeseer,2013-06-15 11:28:00,
2013-06-15 07:38:00,78.3,77.1,0.00,NW,315,0.0,1.1,95,0.00,,,-99.99,Homeseer,2013-06-15 11:38:00,
2013-06-15 07:48:00,78.6,76.6,0.00,North,0,4.5,6.0,92,0.00,,,-99.99,Homeseer,2013-06-15 11:48:00,
2013-06-15 07:58:00,79.0,76.2,0.00,North,0,4.5,4.5,89,0.00,,,-99.99,Homeseer,2013-06-15 11:58:00,
2013-06-15 08:08:00,79.3,76.0,0.00,North,0,6.3,6.3,87,0.00,,,-99.99,Homeseer,2013-06-15 12:08:00,
2013-06-15 08:18:00,79.9,75.4,0.00,North,0,6.3,8.1,83,0.00,,,-99.99,Homeseer,2013-06-15 12:18:00,
2013-06-15 08:28:00,80.6,75.5,0.00,North,0,2.0,3.4,81,0.00,,,-99.99,Homeseer,2013-06-15 12:28:00,
2013-06-15 08:38:00,81.3,74.7,0.00,North,0,3.6,3.6,76,0.00,,,-99.99,Homeseer,2013-06-15 12:38:00,
2013-06-15 08:48:00,81.5,73.6,0.00,NNE,22,2.9,2.9,72,0.00,,,-99.99,Homeseer,2013-06-15 12:48:00,
2013-06-15 08:58:00,82.2,72.9,0.00,North,0,2.9,4.0,68,0.00,,,-99.99,Homeseer,2013-06-15 12:58:00,
2013-06-15 09:08:00,82.8,71.7,0.00,NW,315,1.1,2.7,63,0.00,,,-99.99,Homeseer,2013-06-15 13:08:00,
2013-06-15 09:18:00,82.9,72.2,0.00,North,0,0.9,2.5,64,0.00,,,-99.99,Homeseer,2013-06-15 13:18:00,
2013-06-15 09:28:00,83.3,71.8,0.00,East,90,1.3,2.2,62,0.00,,,-99.99,Homeseer,2013-06-15 13:28:00,
2013-06-15 09:38:00,83.3,70.7,0.00,North,0,2.2,2.2,59,0.00,,,-99.99,Homeseer,2013-06-15 13:38:00,
2013-06-15 09:48:00,84.0,72.1,0.00,North,0,0.9,2.7,61,0.00,,,-99.99,Homeseer,2013-06-15 13:48:00,
2013-06-15 09:58:00,84.6,71.5,0.00,North,0,0.0,0.0,58,0.00,,,-99.99,Homeseer,2013-06-15 13:58:00,
2013-06-15 10:08:00,85.3,71.3,0.00,ENE,67,0.0,0.0,56,0.00,,,-99.99,Homeseer,2013-06-15 14:08:00,
2013-06-15 10:18:00,86.0,73.2,0.00,South,180,0.0,0.0,59,0.00,,,-99.99,Homeseer,2013-06-15 14:18:00,
2013-06-15 10:28:00,86.4,72.3,0.00,SSE,157,1.6,3.1,56,0.00,,,-99.99,Homeseer,2013-06-15 14:28:00,
2013-06-15 10:38:00,87.1,73.8,0.00,North,0,2.7,2.9,58,0.00,,,-99.99,Homeseer,2013-06-15 14:38:00,
2013-06-15 10:48:00,86.7,70.9,0.00,SSE,157,1.6,1.6,52,0.00,,,-99.99,Homeseer,2013-06-15 14:48:00,
2013-06-15 10:58:00,86.9,70.6,0.00,South,180,3.1,3.8,51,0.00,,,-99.99,Homeseer,2013-06-15 14:58:00,
2013-06-15 11:08:00,87.3,71.9,0.00,ESE,112,2.2,0.0,53,0.00,,,-99.99,Homeseer,2013-06-15 15:08:00,
2013-06-15 11:18:00,86.9,70.6,0.00,ESE,112,2.5,2.5,51,0.00,,,-99.99,Homeseer,2013-06-15 15:18:00,
2013-06-15 11:28:00,87.3,70.1,0.00,South,180,3.8,3.8,49,0.00,,,-99.99,Homeseer,2013-06-15 15:28:00,
2013-06-15 11:38:00,87.8,70.5,0.00,SSE,157,2.9,2.9,49,0.00,,,-99.99,Homeseer,2013-06-15 15:38:00,
2013-06-15 11:48:00,87.6,67.9,0.00,SSE,157,3.1,3.1,44,0.00,,,-99.99,Homeseer,2013-06-15 15:48:00,
2013-06-15 11:58:00,88.0,66.1,0.00,North,0,4.0,4.0,40,0.00,,,-99.99,Homeseer,2013-06-15 15:58:00,
2013-06-15 12:08:00,87.8,65.9,0.00,ESE,112,5.4,5.4,40,0.00,,,-99.99,Homeseer,2013-06-15 16:08:00,
2013-06-15 12:18:00,87.3,64.9,0.00,South,180,5.4,5.4,39,0.00,,,-99.99,Homeseer,2013-06-15 16:18:00,
2013-06-15 12:28:00,88.3,65.8,0.00,ESE,112,3.4,3.4,39,0.00,,,-99.99,Homeseer,2013-06-15 16:28:00,
2013-06-15 12:38:00,88.0,65.0,0.00,SSE,157,2.5,4.9,38,0.00,,,-99.99,Homeseer,2013-06-15 16:38:00,
2013-06-15 12:48:00,88.2,66.3,0.00,South,180,3.8,4.9,40,0.00,,,-99.99,Homeseer,2013-06-15 16:48:00,
2013-06-15 12:58:00,88.2,65.7,0.00,SSE,157,4.5,5.6,39,0.00,,,-99.99,Homeseer,2013-06-15 16:58:00,
2013-06-15 13:08:00,88.7,66.7,0.00,SE,135,4.0,4.0,40,0.00,,,-99.99,Homeseer,2013-06-15 17:08:00,
2013-06-15 13:18:00,88.3,65.2,0.00,SSE,157,3.1,3.1,38,0.00,,,-99.99,Homeseer,2013-06-15 17:18:00,
2013-06-15 13:28:00,88.7,66.1,0.00,SE,135,4.5,5.4,39,0.00,,,-99.99,Homeseer,2013-06-15 17:28:00,
2013-06-15 13:38:00,88.3,66.4,0.00,SE,135,4.7,4.7,40,0.00,,,-99.99,Homeseer,2013-06-15 17:38:00,
2013-06-15 13:48:00,88.2,66.3,0.00,SE,135,5.8,5.8,40,0.00,,,-99.99,Homeseer,2013-06-15 17:48:00,
2013-06-15 13:58:00,88.5,66.5,0.00,SE,135,2.7,3.4,40,0.00,,,-99.99,Homeseer,2013-06-15 17:58:00,
2013-06-15 14:08:00,89.2,67.1,0.00,East,90,4.0,5.4,40,0.00,,,-99.99,Homeseer,2013-06-15 18:08:00,
2013-06-15 14:18:00,88.5,67.1,0.00,ESE,112,4.5,4.9,41,0.00,,,-99.99,Homeseer,2013-06-15 18:18:00,
2013-06-15 14:28:00,88.2,65.7,0.00,ESE,112,4.3,4.3,39,0.00,,,-99.99,Homeseer,2013-06-15 18:28:00,
2013-06-15 14:38:00,88.3,66.9,0.00,SSE,157,5.6,5.6,41,0.00,,,-99.99,Homeseer,2013-06-15 18:38:00,
2013-06-15 14:48:00,88.7,67.3,0.00,ESE,112,4.0,5.4,41,0.00,,,-99.99,Homeseer,2013-06-15 18:48:00,
2013-06-15 14:58:00,89.2,66.6,0.00,North,0,3.1,3.1,39,0.00,,,-99.99,Homeseer,2013-06-15 18:58:00,
2013-06-15 15:08:00,89.1,66.5,0.00,SE,135,2.0,8.5,39,0.00,,,-99.99,Homeseer,2013-06-15 19:08:00,
2013-06-15 15:18:00,88.9,66.3,0.00,SSE,157,4.3,6.3,39,0.00,,,-99.99,Homeseer,2013-06-15 19:18:00,
2013-06-15 15:28:00,88.9,67.4,0.00,SE,135,4.0,4.3,41,0.00,,,-99.99,Homeseer,2013-06-15 19:28:00,
2013-06-15 15:38:00,88.0,66.7,0.00,ESE,112,4.5,5.8,41,0.00,,,-99.99,Homeseer,2013-06-15 19:38:00,
2013-06-15 15:48:00,88.0,66.7,0.00,ESE,112,4.5,5.8,41,0.00,,,-99.99,Homeseer,2013-06-15 19:48:00,
2013-06-15 15:58:00,88.0,66.7,0.00,ESE,112,3.6,5.8,41,0.00,,,-99.99,Homeseer,2013-06-15 19:58:00,
2013-06-15 16:08:00,87.8,65.9,0.00,ESE,112,3.6,5.8,40,0.00,,,-99.99,Homeseer,2013-06-15 20:08:00,
2013-06-15 16:18:00,88.0,66.1,0.00,ESE,112,3.6,5.8,40,0.00,,,-99.99,Homeseer,2013-06-15 20:18:00,
2013-06-15 16:28:00,87.8,65.9,0.00,ESE,112,3.6,5.8,40,0.00,,,-99.99,Homeseer,2013-06-15 20:28:00,
2013-06-15 16:38:00,88.2,66.3,0.00,ESE,112,3.6,5.8,40,0.00,,,-99.99,Homeseer,2013-06-15 20:38:00,
2013-06-15 16:48:00,87.8,65.9,0.00,ESE,112,3.6,5.8,40,0.00,,,-99.99,Homeseer,2013-06-15 20:48:00,
2013-06-15 16:58:00,88.2,66.3,0.00,SE,135,2.9,4.0,40,0.00,,,-99.99,Homeseer,2013-06-15 20:58:00,
2013-06-15 17:08:00,88.2,66.3,0.00,SE,135,2.9,4.0,40,0.00,,,-99.99,Homeseer,2013-06-15 21:08:00,
2013-06-15 17:18:00,88.0,66.7,0.00,SE,135,2.9,4.0,41,0.00,,,-99.99,Homeseer,2013-06-15 21:18:00,
2013-06-15 17:28:00,87.4,66.1,0.00,SSE,157,2.9,2.9,41,0.00,,,-99.99,Homeseer,2013-06-15 21:28:00,
2013-06-15 17:38:00,87.1,66.4,0.00,SSE,157,2.9,2.9,42,0.00,,,-99.99,Homeseer,2013-06-15 21:38:00,
2013-06-15 17:48:00,87.1,66.4,0.00,SSE,157,2.9,2.9,42,0.00,,,-99.99,Homeseer,2013-06-15 21:48:00,
2013-06-15 17:58:00,86.9,66.2,0.00,SSE,157,2.9,2.9,42,0.00,,,-99.99,Homeseer,2013-06-15 21:58:00,
2013-06-15 18:08:00,87.1,66.9,0.00,SSE,157,2.9,2.9,43,0.00,,,-99.99,Homeseer,2013-06-15 22:08:00,
2013-06-15 18:18:00,86.5,66.9,0.00,SSE,157,2.9,2.9,44,0.00,,,-99.99,Homeseer,2013-06-15 22:18:00,
2013-06-15 18:28:00,86.2,67.2,0.00,North,0,0.0,0.0,45,0.00,,,-99.99,Homeseer,2013-06-15 22:28:00,
2013-06-15 18:38:00,86.2,67.2,0.00,North,0,0.0,0.0,45,0.00,,,-99.99,Homeseer,2013-06-15 22:38:00,
2013-06-15 18:48:00,86.0,67.0,0.00,North,0,0.0,0.0,45,0.00,,,-99.99,Homeseer,2013-06-15 22:48:00,
2013-06-15 18:58:00,85.1,67.6,0.00,North,0,0.0,0.0,48,0.00,,,-99.99,Homeseer,2013-06-15 22:58:00,
2013-06-15 19:08:00,85.5,67.5,0.00,North,0,0.0,0.0,47,0.00,,,-99.99,Homeseer,2013-06-15 23:08:00,
2013-06-15 19:18:00,84.7,67.7,0.00,ESE,112,2.7,2.9,49,0.00,,,-99.99,Homeseer,2013-06-15 23:18:00,
2013-06-15 19:28:00,84.4,66.5,0.00,SSE,157,3.4,4.3,47,0.00,,,-99.99,Homeseer,2013-06-15 23:28:00,
2013-06-15 19:38:00,84.2,68.2,0.00,SSE,157,3.4,4.3,51,0.00,,,-99.99,Homeseer,2013-06-15 23:38:00,
2013-06-15 19:48:00,83.3,69.5,0.00,SSE,157,2.0,2.0,56,0.00,,,-99.99,Homeseer,2013-06-15 23:48:00,
2013-06-15 19:58:00,83.3,69.9,0.00,SSE,157,2.7,2.7,57,0.00,,,-99.99,Homeseer,2013-06-15 23:58:00,
2013-06-15 20:08:00,82.9,69.5,0.00,SE,135,2.9,3.1,57,0.00,,,-99.99,Homeseer,2013-06-16 00:08:00,
2013-06-15 20:18:00,82.9,70.3,0.00,SE,135,2.9,3.1,59,0.00,,,-99.99,Homeseer,2013-06-16 00:18:00,
2013-06-15 20:28:00,82.8,69.8,0.00,SE,135,2.9,3.1,58,0.00,,,-99.99,Homeseer,2013-06-16 00:28:00,
2013-06-15 20:38:00,82.8,70.2,0.00,SE,135,2.9,3.1,59,0.00,,,-99.99,Homeseer,2013-06-16 00:38:00,
2013-06-15 20:48:00,82.8,70.2,0.00,SE,135,2.9,3.1,59,0.00,,,-99.99,Homeseer,2013-06-16 00:48:00,
2013-06-15 20:58:00,82.6,69.6,0.00,SE,135,2.9,3.1,58,0.00,,,-99.99,Homeseer,2013-06-16 00:58:00,
2013-06-15 21:08:00,82.6,69.2,0.00,North,0,0.0,0.0,57,0.00,,,-99.99,Homeseer,2013-06-16 01:08:00,
2013-06-15 21:18:00,82.4,69.1,0.00,North,0,0.0,0.0,57,0.00,,,-99.99,Homeseer,2013-06-16 01:18:00,
2013-06-15 21:28:00,82.4,68.7,0.00,North,0,0.0,0.0,56,0.00,,,-99.99,Homeseer,2013-06-16 01:28:00,
2013-06-15 21:38:00,82.4,69.1,0.00,North,0,0.0,0.0,57,0.00,,,-99.99,Homeseer,2013-06-16 01:38:00,
2013-06-15 21:48:00,82.2,68.9,0.00,North,0,0.0,0.0,57,0.00,,,-99.99,Homeseer,2013-06-16 01:48:00,
2013-06-15 21:58:00,82.2,69.3,0.00,North,0,0.0,0.0,58,0.00,,,-99.99,Homeseer,2013-06-16 01:58:00,
2013-06-15 22:08:00,82.2,69.3,0.00,North,0,0.0,0.0,58,0.00,,,-99.99,Homeseer,2013-06-16 02:08:00,
2013-06-15 22:18:00,82.0,68.7,0.00,North,0,0.0,0.0,57,0.00,,,-99.99,Homeseer,2013-06-16 02:18:00,
2013-06-15 22:28:00,82.0,68.7,0.00,North,0,0.0,0.0,57,0.00,,,-99.99,Homeseer,2013-06-16 02:28:00,
2013-06-15 22:38:00,82.0,68.7,0.00,North,0,0.0,0.0,57,0.00,,,-99.99,Homeseer,2013-06-16 02:38:00,
2013-06-15 22:48:00,82.0,69.1,0.00,North,0,0.0,0.0,58,0.00,,,-99.99,Homeseer,2013-06-16 02:48:00,
2013-06-15 22:58:00,81.9,68.2,0.00,North,0,0.0,0.0,56,0.00,,,-99.99,Homeseer,2013-06-16 02:58:00,
2013-06-15 23:08:00,81.9,67.8,0.00,North,0,0.0,0.0,55,0.00,,,-99.99,Homeseer,2013-06-16 03:08:00,
2013-06-15 23:18:00,81.7,67.6,0.00,North,0,0.0,0.0,55,0.00,,,-99.99,Homeseer,2013-06-16 03:18:00,
2013-06-15 23:28:00,81.9,67.4,0.00,North,0,0.0,0.0,54,0.00,,,-99.99,Homeseer,2013-06-16 03:28:00,
2013-06-15 23:38:00,81.7,67.6,0.00,North,0,0.0,0.0,55,0.00,,,-99.99,Homeseer,2013-06-16 03:38:00,
2013-06-15 23:48:00,81.5,67.8,0.00,North,0,0.0,0.0,56,0.00,,,-99.99,Homeseer,2013-06-16 03:48:00,
2013-06-15 23:58:00,81.5,67.8,0.00,North,0,0.0,0.0,56,0.00,,,-99.99,Homeseer,2013-06-16 03:58:00,